Weather History for Lakeville, MN

Change the Weather History Date:

Thursday, November 29, 2012

  Actual Average Record
Temperature  
Mean Temperature 26 °F -  
Max Temperature 39 °F 33 °F 64 °F (1998)
Min Temperature 14 °F 16 °F -15 °F (1985)
Degree Days  
Heating Degree Days 38    
Moisture  
Dew Point 23 °F    
Average Humidity 77    
Maximum Humidity 100    
Minimum Humidity 56    
Precipitation  
Precipitation 0.00 in - - ()
Sea Level Pressure  
Sea Level Pressure 30.06 in    
Wind  
Wind Speed 3 mph (ENE)    
Max Wind Speed 12 mph    
Max Gust Speed -    
Visibility 9 miles    
Events      
Averages and records for this station are not official NWS values.
T = Trace of Precipitation, MM = Missing Value Source: NWS Daily Summary

Daily Weather History Graph

Daily Weather History Graph

Search for Another Location

Airport:

Trip Planner

Search our weather history database for the weather conditions in past years. The results will help you decide how hot, cold, wet, or windy it might be!

Date:

Astronomy

Nov. 29, 2012 Rise Set
Actual Time 7:27 AM CST 4:34 PM CST
Civil Twilight 6:55 AM CST 5:07 PM CST
Nautical Twilight 6:18 AM CST 5:43 PM CST
Astronomical Twilight 5:43 AM CST 6:18 PM CST
Moon 5:37 PM CST (11/29) 8:15 AM CST (11/29)
Length of Visible Light 10h 12m
Length of Day
9h 06m
Full, 99% of the Moon is Illuminated
Nov 29
Full
Dec 6
Last Quarter
Dec 13
New
Dec 19
First Quarter
Dec 28
Full

Hourly Weather History & Observations

Time (CST) Temp. Windchill Dew Point Humidity Pressure Visibility Wind Dir Wind Speed Gust Speed Precip Events Conditions
12:13 AM 26.6 °F - 21.2 °F 80% 30.08 in 10.0 mi Calm Calm - N/A   Clear
12:33 AM 26.6 °F - 21.2 °F 80% 30.07 in 10.0 mi Calm Calm - N/A   Clear
12:52 AM 26.6 °F - 21.2 °F 80% 30.06 in 10.0 mi Calm Calm - N/A   Clear
1:13 AM 26.6 °F - 21.2 °F 80% 30.05 in 10.0 mi Calm Calm - N/A   Clear
1:33 AM 24.8 °F - 21.2 °F 86% 30.04 in 10.0 mi Calm Calm - N/A   Clear
1:52 AM 23.0 °F - 19.4 °F 86% 30.06 in 10.0 mi Calm Calm - N/A   Clear
2:13 AM 24.8 °F - 21.2 °F 86% 30.06 in 10.0 mi Calm Calm - N/A   Clear
2:33 AM 24.8 °F - 19.4 °F 80% 30.06 in 10.0 mi Calm Calm - N/A   Clear
2:53 AM 24.8 °F 20.5 °F 21.2 °F 86% 30.06 in 10.0 mi East 3.5 mph - N/A   Clear
3:12 AM 23.0 °F - 19.4 °F 86% 30.06 in 10.0 mi Calm Calm - N/A   Clear
3:33 AM 21.2 °F - 19.4 °F 93% 30.06 in 10.0 mi Calm Calm - N/A   Clear
4:12 AM 21.2 °F - 19.4 °F 93% 30.04 in 10.0 mi Calm Calm - N/A   Clear
4:33 AM 21.2 °F - 19.4 °F 93% 30.04 in 10.0 mi Calm Calm - N/A   Clear
4:53 AM 21.2 °F - 19.4 °F 93% 30.04 in 10.0 mi Calm Calm - N/A   Clear
5:12 AM 17.6 °F - 15.8 °F 93% 30.05 in 7.0 mi Calm Calm - N/A   Clear
5:33 AM 19.4 °F - 17.6 °F 93% 30.05 in 10.0 mi Calm Calm - N/A   Clear
5:53 AM 19.4 °F - 17.6 °F 93% 30.05 in 7.0 mi Calm Calm - N/A   Clear
6:12 AM 17.6 °F - 17.6 °F 100% 30.05 in 7.0 mi Calm Calm - N/A   Clear
6:33 AM 17.6 °F - 15.8 °F 93% 30.05 in 7.0 mi Calm Calm - N/A   Clear
6:53 AM 17.6 °F - 17.6 °F 100% 30.05 in 5.0 mi Calm Calm - N/A   Clear
7:12 AM 17.6 °F - 15.8 °F 93% 30.06 in 1.8 mi Calm Calm - N/A   Mist
7:33 AM 14.0 °F - 12.2 °F 93% 30.06 in 4.0 mi Calm Calm - N/A   Clear
7:53 AM 17.6 °F - 17.6 °F 100% 30.07 in 7.0 mi Calm Calm - N/A   Clear
8:13 AM 19.4 °F - 17.6 °F 93% 30.08 in 5.0 mi Calm Calm - N/A   Clear
8:33 AM 21.2 °F - 19.4 °F 93% 30.08 in 5.0 mi Calm Calm - N/A   Clear
8:53 AM 24.8 °F - 21.2 °F 86% 30.07 in 5.0 mi Calm Calm - N/A   Clear
9:13 AM 26.6 °F 22.6 °F 23.0 °F 86% 30.06 in 7.0 mi East 3.5 mph - N/A   Clear
9:33 AM 28.4 °F 24.6 °F 23.0 °F 80% 30.06 in 7.0 mi East 3.5 mph - N/A   Clear
10:13 AM 32.0 °F 28.7 °F 24.8 °F 75% 30.07 in 10.0 mi NE 3.5 mph - N/A   Unknown
10:33 AM 33.8 °F 28.6 °F 24.8 °F 70% 30.06 in 10.0 mi ENE 5.8 mph - N/A   Unknown
10:53 AM 33.8 °F 27.7 °F 24.8 °F 70% 30.06 in 10.0 mi ENE 6.9 mph - N/A   Unknown
11:13 AM 35.6 °F 29.9 °F 24.8 °F 65% 30.06 in 10.0 mi East 6.9 mph - N/A   Unknown
11:33 AM 37.4 °F 31.4 °F 24.8 °F 60% 30.06 in 10.0 mi ENE 8.1 mph - N/A   Clear
11:53 AM 37.4 °F 29.8 °F 24.8 °F 60% 30.05 in 10.0 mi East 11.5 mph - N/A   Clear
12:13 PM 37.4 °F 30.8 °F 24.8 °F 60% 30.05 in 10.0 mi East 9.2 mph - N/A   Clear
12:33 PM 37.4 °F 30.8 °F 24.8 °F 60% 30.05 in 10.0 mi ENE 9.2 mph - N/A   Clear
12:53 PM 37.4 °F 30.3 °F 24.8 °F 60% 30.04 in 10.0 mi ENE 10.4 mph - N/A   Clear
1:13 PM 39.2 °F 33.0 °F 26.6 °F 61% 30.04 in 10.0 mi East 9.2 mph - N/A   Clear
1:32 PM 39.2 °F 32.0 °F 26.6 °F 61% 30.03 in 10.0 mi NE 11.5 mph - N/A   Clear
1:53 PM 39.2 °F 33.0 °F 26.6 °F 61% 30.04 in 10.0 mi East 9.2 mph - N/A   Clear
2:13 PM 39.2 °F 32.0 °F 24.8 °F 56% 30.03 in 10.0 mi ENE 11.5 mph - N/A   Clear
2:32 PM 39.2 °F 32.5 °F 24.8 °F 56% 30.03 in 10.0 mi ENE 10.4 mph - N/A   Clear
2:53 PM 39.2 °F 33.0 °F 24.8 °F 56% 30.02 in 10.0 mi ENE 9.2 mph - N/A   Clear
3:13 PM 37.4 °F 31.4 °F 24.8 °F 60% 30.02 in 10.0 mi NE 8.1 mph - N/A   Clear
3:32 PM 37.4 °F 31.4 °F 24.8 °F 60% 30.03 in 10.0 mi NE 8.1 mph - N/A   Clear
3:53 PM 37.4 °F 30.3 °F 24.8 °F 60% 30.03 in 10.0 mi NE 10.4 mph - N/A   Clear
4:13 PM 35.6 °F 29.2 °F 24.8 °F 65% 30.04 in 10.0 mi NE 8.1 mph - N/A   Clear
4:32 PM 35.6 °F 29.9 °F 24.8 °F 65% 30.04 in 10.0 mi NE 6.9 mph - N/A   Clear
4:53 PM 35.6 °F 29.2 °F 24.8 °F 65% 30.03 in 10.0 mi NE 8.1 mph - N/A   Clear
5:13 PM 33.8 °F 27.0 °F 24.8 °F 70% 30.04 in 10.0 mi ENE 8.1 mph - N/A   Clear
5:32 PM 33.8 °F 28.6 °F 24.8 °F 70% 30.05 in 10.0 mi ENE 5.8 mph - N/A   Clear
5:53 PM 33.8 °F 28.6 °F 24.8 °F 70% 30.06 in 10.0 mi NE 5.8 mph - N/A   Clear
6:13 PM 33.8 °F 27.7 °F 24.8 °F 70% 30.06 in 10.0 mi NE 6.9 mph - N/A   Clear
6:33 PM 33.8 °F 27.0 °F 24.8 °F 70% 30.06 in 10.0 mi NE 8.1 mph - N/A   Clear
6:53 PM 32.0 °F 26.4 °F 24.8 °F 75% 30.07 in 10.0 mi NE 5.8 mph - N/A   Clear
7:13 PM 33.8 °F 27.0 °F 24.8 °F 70% 30.06 in 10.0 mi NE 8.1 mph - N/A   Clear
7:33 PM 32.0 °F 23.6 °F 24.8 °F 75% 30.07 in 10.0 mi NNE 10.4 mph - N/A   Clear
7:53 PM 32.0 °F 24.2 °F 24.8 °F 75% 30.08 in 10.0 mi NE 9.2 mph - N/A   Clear
8:13 PM 32.0 °F 24.2 °F 24.8 °F 75% 30.09 in 10.0 mi NE 9.2 mph - N/A   Clear
8:33 PM 32.0 °F 24.8 °F 24.8 °F 75% 30.09 in 10.0 mi NE 8.1 mph - N/A   Clear
8:53 PM 30.2 °F 21.9 °F 24.8 °F 80% 30.08 in 10.0 mi NE 9.2 mph - N/A   Clear
9:13 PM 30.2 °F 21.9 °F 24.8 °F 80% 30.07 in 7.0 mi NE 9.2 mph - N/A   Clear
9:33 PM 30.2 °F 22.6 °F 24.8 °F 80% 30.07 in 7.0 mi NE 8.1 mph - N/A   Clear
9:53 PM 30.2 °F 22.6 °F 24.8 °F 80% 30.07 in 10.0 mi NE 8.1 mph - N/A   Clear
10:13 PM 30.2 °F 22.6 °F 24.8 °F 80% 30.07 in 10.0 mi NE 8.1 mph - N/A   Clear
10:33 PM 30.2 °F 22.6 °F 24.8 °F 80% 30.07 in 10.0 mi NE 8.1 mph - N/A   Clear
10:53 PM 30.2 °F 22.6 °F 24.8 °F 80% 30.07 in 10.0 mi NE 8.1 mph - N/A   Clear
11:13 PM 30.2 °F 22.6 °F 24.8 °F 80% 30.08 in 10.0 mi NE 8.1 mph - N/A   Clear
11:33 PM 30.2 °F 23.4 °F 24.8 °F 80% 30.08 in 10.0 mi NE 6.9 mph - N/A   Scattered Clouds
11:53 PM 30.2 °F 23.4 °F 24.8 °F 80% 30.07 in 10.0 mi NE 6.9 mph - N/A   Scattered Clouds